Content
SEND FEEDBACK

Daily
Averages
Monthly
Summary
United States of America

CHICAGO, ILLINOIS


Home > North America > United States > Illinois
Elevation: 674 feet     Latitude: 41 59N     Longitude: 087 54W

WEATHER
 
SELECT A DAY
Number of Records: 197,256;   Date Range: 7/8/95 - 9/30/14
 
SHARE

PRINT THIS DATA

[ ← Previous Day ]
WEATHER ALMANAC - SEPTEMBER 14, 2013
[ Next Day → ]
[ °C ]   °F
Weather ElementAverageHighLow
Temperature60.5 °F73 °F (2:52 pm)45 °F (5:52 am)
Dewpoint42.8 °F48 °F (10:52 am)37 °F (3:52 pm)
Humidity56.3 %90 % (5:52 am)28 % (3:52 pm)
Barometer30.13 in30.20 in (7:52 am)30.05 in (11:52 pm)
Wind Speed3.9 mph9.2 mph (11:52 am)
Weather ElementAverage
Visibility9.9 mi
Wind DirectionESE (106.5 °)

Weather ElementTotal
Precipitation---
Heating Degree Days6 (Base 65)
Growing Degree Days9 (Base 50)
Averaged from 23 records on September 14, 2013
WEATHER CONDITIONS BREAKOUT
WIND DIRECTION BREAKOUT
WEATHER BY HOUR - SEPTEMBER 14, 2013
[ °C ]   °F
Local TimeTemperatureDewpointHumidityBarometerVisibilityWind DirectionWind SpeedGust SpeedPrecipitationEventsConditions
1:52 AM50.0 °F44.1 °F80 %30.16 in10.0 miCalmClear
2:52 AM50.0 °F45.0 °F83 %30.16 in10.0 miCalmClear
3:52 AM48.9 °F44.1 °F83 %30.16 in8.0 miCalmClear
4:52 AM48.9 °F44.1 °F83 %30.17 in10.0 miCalmClear
5:52 AM45.0 °F42.1 °F90 %30.18 in10.0 miSSE (160°)6.9 mphClear
6:52 AM48.0 °F43.0 °F83 %30.19 in10.0 miCalmClear
7:52 AM54.0 °F46.9 °F77 %30.20 in10.0 miCalmClear
8:52 AM57.9 °F46.9 °F67 %30.20 in10.0 miSSW (200°)4.6 mphClear
9:52 AM62.1 °F46.9 °F58 %30.20 in10.0 miVariable4.6 mphClear
10:52 AM64.9 °F48.0 °F54 %30.19 in10.0 miSSW (210°)8.1 mphClear
11:52 AM66.9 °F46.0 °F47 %30.18 in10.0 miWest (260°)9.2 mphClear
12:52 PM68.0 °F44.1 °F42 %30.16 in10.0 miWSW (250°)6.9 mphClear
1:52 PM70.0 °F43.0 °F38 %30.14 in10.0 miCalmClear
2:52 PM73.0 °F39.0 °F29 %30.12 in10.0 miSW (220°)9.2 mphClear
3:52 PM72.0 °F37.0 °F28 %30.10 in10.0 miSSW (200°)8.1 mphClear
4:52 PM73.0 °F37.9 °F28 %30.07 in10.0 miVariable6.9 mphClear
5:52 PM72.0 °F39.0 °F30 %30.07 in10.0 miWSW (240°)6.9 mphClear
6:52 PM69.1 °F39.0 °F33 %30.07 in10.0 miSSW (200°)4.6 mphClear
7:52 PM64.0 °F39.9 °F41 %30.07 in10.0 miSouth (180°)3.5 mphClear
8:52 PM60.1 °F42.1 °F51 %30.06 in10.0 miSSE (160°)4.6 mphClear
9:52 PM57.9 °F42.1 °F56 %30.06 in10.0 miSouth (170°)4.6 mphClear
10:52 PM57.0 °F42.1 °F57 %30.06 in10.0 miCalmClear
11:52 PM57.9 °F42.1 °F56 %30.05 in10.0 miCalmClear
Hourly data recorded from KPWK, located miles away from Chicago, Illinois







STORIES FROM OUR PARTNERS